Location: Ostrava
(49.8330°N, 18.2830°E)
Time: 04:57:19
(UTC+02:00)

Lacrosse 5 - Visible Passes

Search period start: 21 April 2015 00:00
Search period end: 01 May 2015 00:00
Orbit: 714 x 723 km, 57.0° (Epoch: 19 April)

Date Brightness Start Highest point End Pass type
(mag) Time Alt. Az. Time Alt. Az. Time Alt. Az.
21 Apr 3.7 01:12:57 20° E 01:12:57 20° E 01:14:58 10° ENE visible
21 Apr 1.8 02:52:06 54° WSW 02:53:16 80° NNW 02:58:22 10° NE visible
21 Apr 3.0 04:31:58 10° W 04:36:46 39° N 04:41:32 10° ENE visible
22 Apr 2.0 02:00:15 65° ESE 02:00:15 65° ESE 02:04:54 10° ENE visible
22 Apr 2.7 03:39:25 17° W 03:43:03 46° NNW 03:47:57 10° ENE visible
23 Apr 3.1 01:08:22 31° E 01:08:22 31° E 01:11:19 10° ENE visible
23 Apr 2.3 02:47:31 36° W 02:49:23 59° NNW 02:54:26 10° NE visible
23 Apr 3.2 04:28:22 10° WNW 04:33:05 37° N 04:37:48 10° ENE visible
24 Apr 4.0 00:16:26 15° E 00:16:26 15° E 00:17:31 10° ENE visible
24 Apr 1.8 01:55:34 78° W 01:55:51 82° NNW 02:00:57 10° NE visible
24 Apr 3.0 03:34:43 11° W 03:39:20 39° N 03:44:07 10° ENE visible
25 Apr 2.4 01:03:34 50° E 01:03:34 50° E 01:07:28 10° ENE visible
25 Apr 2.7 02:42:43 23° W 02:45:37 46° NNW 02:50:31 10° ENE visible
25 Apr 3.3 04:24:41 10° WNW 04:29:25 37° N 04:34:09 10° ENE visible
26 Apr 3.3 00:11:30 25° E 00:11:30 25° E 00:13:53 10° ENE visible
26 Apr 2.3 01:50:37 44° W 01:51:58 60° NNW 01:57:01 10° NE visible
26 Apr 3.2 03:30:55 10° WNW 03:35:39 37° N 03:40:22 10° ENE visible
26 Apr 4.0 23:19:19 13° ENE 23:19:19 13° ENE 23:20:04 10° ENE visible
27 Apr 1.8 00:58:27 83° NNW 00:58:27 83° NNW 01:03:31 10° ENE visible
27 Apr 3.1 02:37:35 12° WNW 02:41:53 39° N 02:46:40 10° ENE visible
27 Apr 3.2 04:20:54 10° WNW 04:25:44 41° NNE 04:30:33 10° E visible
28 Apr 2.3 00:06:08 50° E 00:06:08 50° E 00:10:02 10° ENE visible
28 Apr 2.8 01:45:14 23° W 01:48:10 47° NNW 01:53:05 10° NE visible
28 Apr 3.3 03:27:14 10° WNW 03:31:59 37° N 03:36:42 10° ENE visible
28 Apr 3.0 23:13:36 29° E 23:13:36 29° E 23:16:26 10° ENE visible
29 Apr 2.3 00:52:41 37° W 00:54:31 60° NNW 00:59:34 10° NE visible
29 Apr 3.3 02:33:28 10° WNW 02:38:12 37° N 02:42:55 10° ENE visible
29 Apr 2.9 04:17:01 10° NW 04:21:59 49° NNE 04:26:55 10° E visible
29 Apr 3.4 22:20:40 19° E 22:20:40 19° E 22:22:36 10° ENE visible
29 Apr 1.8 23:59:42 52° WSW 00:00:58 84° NNW 00:06:05 10° ENE visible
30 Apr 3.1 01:39:37 10° W 01:44:26 40° N 01:49:14 10° ENE visible
30 Apr 3.2 03:23:27 10° WNW 03:28:16 41° NNE 03:33:05 10° E visible
30 Apr 3.6 21:26:43 14° ESE 21:26:43 14° ESE 21:28:13 10° E visible
30 Apr 1.7 23:05:38 37° SSW 23:07:31 65° SE 23:12:35 10° ENE visible
